TITAN 3C TRANSTAGE DEB, 26763

Orbit data source: Space-Track

TITAN 3C TRANSTAGE DEB, 26763 is space debris in HEO originally from a launch on Tue, 21 Dec 1965 UTC launched from the Air Force Eastern Test Range (AFETR). Debris objects in space refer to the collection of defunct objects orbiting the Earth. Examples of debris include non-operational satellites, rocket bodies, and fragments generated from explosions, collisions, or faulty payload assembly.

Loading next visibility...
Identifier
26763, 1965-108AS
Orbit
HEO
Country
Flag of USUS
Related business
Manufacturer
Unknown
Mission
Spacecraft
Bus & Motor
Unknown
Mass
Unknown
Launch date (UTC)
1965-12-21 (61 years ago)
Launch vehicle
Unknown
Launch site
Air Force Eastern Test Range (AFETR)
Object type
Payload
Rocket body
Debris
Shape & HBR
Unknown shape, 0.1 m
Radar Cross Section
Medium (>0.1 m² and <1 m²)

Expand to show TLE details & history
Last TLE update: 3 months ago

TLE from 3 months ago
0 TITAN 3C TRANSTAGE DEB
1 26763U 65108AS  26172.29369191  .00000009  00000-0  19052-3 0  9991
2 26763  26.1132 141.3072 6721182 202.2487 350.7013  2.74437773252384
Epoch: 2026-06-21T07:02Z
TLE epoch observation values (Epoch: 2026-06-21T07:02:54.981Z)
Latitude
13.96471°
Longitude
-84.33169°
Altitude
2,183.606 km
Speed
8.638 km/s
True Right ascension
19h 23m 34s
True Declination
13° 53' 52"
Sunlit
Object was in full shadow at epoch
Visualization orbit readout
Latitude
Unknown
Longitude
Unknown
Altitude
Unknown
Speed
Unknown
Apparent Right ascension
Unknown
Apparent Declination
Unknown
Sunlit
N/A
Visualization observer readout
Local Sidereal Time
17:53:51
Azimuth
Unknown
Elevation
Unknown
Doppler factor
Unknown
Orbital elements
Apogee altitude
29,661.339 km
Perigee altitude
688.761 km
Semi-major axis
21,553.187 km
Eccentricity
0.67212
Inclination
26.1132°
RAAN
141.3072°
Arg. of periapsis
202.2487°
True anomaly
304.08229°
Mean anomaly
350.7013°
Eccentric anomaly
333.54626°
Mean motion
0.68592 °/min
Orbital period
524.84 mins
BSTAR
0.00019052
Loading maneuver chart data...
Computing Atmospheric mass density...

Documentation

Showing up to 5 results
|